Regional Weather Roundup
Issued by NWS Mt. Holly, NJ

Home | Current Version | Previous Version | Text Only | Print | Product List | Glossary On
Versions: 1 2 3 4 5 6 7 8 9 10 11 12 13 14 15 16 17 18 19 20 21 22 23 24 25 26 27 28 29 30 31 32 33 34 35 36 37 38 39 40 41 42 43 44 45 46 47 48 49 50
000
ASUS41 KPHI 051312
RWRPHI

REGIONAL WEATHER ROUNDUP
NATIONAL WEATHER SERVICE MOUNT HOLLY NJ
800 AM EST MON DEC 05 2016

NOTE:  "FAIR" INDICATES FEW OR NO CLOUDS BELOW 12,000 FEET WITH NO
SIGNIFICANT WEATHER AND/OR OBSTRUCTIONS TO VISIBILITY.

 * = STATION DOES NOT REPORT PRECIPITATION (E.G. RAIN, SNOW, ETC.)
        OR FOG.

NJZ015>026-051400-
SOUTHERN NEW JERSEY

CITY           SKY/WX    TMP DP  RH WIND       PRES   REMARKS
POMONA         CLOUDY    43  41  93 W6        30.02R
WILDWOOD*      CLOUDY    44  43  96 W5        30.02R
MILLVILLE      CLOUDY    42  42 100 CALM      30.02S
WRIGHTSTOWN    CLOUDY    39  39 100 SW3       29.99F
MOUNT HOLLY    CLOUDY    40  39  97 S3        30.01F FOG
TRENTON        CLOUDY    40  38  93 S7        29.99F FOG

$$
NJZ001>014-051400-
NORTHERN NEW JERSEY

CITY           SKY/WX    TMP DP  RH WIND       PRES   REMARKS
SUSSEX         CLOUDY    31  31 100 CALM      29.97F FOG
ANDOVER*         N/A     34  33  96 S3        29.97F
MORRISTOWN     LGT SNOW  32  32 100 NE3       30.01F
NEWARK         CLOUDY    39  37  92 SW3       30.01F
TETERBORO      CLOUDY    38  35  89 CALM      30.00F FOG
CALDWELL       CLOUDY    34  33  96 CALM      30.01F FOG
SOMERVILLE     CLOUDY    34  32  92 CALM      29.99F FOG
ALLAIRE*       LGT RAIN  39  38  96 SW6       30.03S FOG     WCI  35
TOMS RIVER*    LGT RAIN  40  39  97 MISG      30.03R FOG

$$
PAZ043-044-047-054-055-060>062-066>071-051400-
EASTERN PENNSYLVANIA

CITY           SKY/WX    TMP DP  RH WIND       PRES   REMARKS
PHILADELPHIA   CLOUDY    42  39  89 S10       30.01F
NORTH PHILA    CLOUDY    42  40  92 S5        30.02F
BLUE BELL*     CLOUDY    37  37 100 SW7       29.99F WCI  32
DOYLESTOWN     CLOUDY    40  39  97 SW5       29.98F
QUAKERTOWN*    CLOUDY    36  36 100 SW3       30.00R
PERKASIE*      CLOUDY    37  37 100 SW3       29.99S FOG
POTTSTOWN      CLOUDY    37  37 100 CALM      30.02R
LANCASTER      CLOUDY    40  40 100 SW6       29.99R
COATESVILLE    CLOUDY    39  39 100 VRB3      30.00R FOG
READING        CLOUDY    37  34  89 CALM      29.99S
ALLENTOWN      CLOUDY    34  32  92 CALM      29.99S FOG
MOUNT POCONO   FOG       31  30  96 SW13G20   29.90S VSB 1/2 WCI  21
HAZLETON       LGT SNOW  34  32  93 CALM      29.95R
LEHIGHTON        N/A     34  34 100 CALM      29.99S FOG
WILKES BARRE   LGT RAIN  35  33  92 SW7       29.93R WCI  29

$$
DEZALL-MDZ008-012-015-019-020-051400-
DELAWARE AND EASTERN MARYLAND

CITY           SKY/WX    TMP DP  RH WIND       PRES   REMARKS
WILMINGTON     CLOUDY    41  40  96 SW6       30.01F
DOVER          CLOUDY    41  41 100 S3        29.99F
GEORGETOWN     MOCLDY    43  41  93 CALM      30.01S
EASTON         CLOUDY    45  41  87 CALM      30.04S
ABERDEEN       CLOUDY    42  40  95 SW8       30.01S
PATUXENT       CLOUDY    42  40  92 W3        30.00S
OCEAN CITY     CLOUDY    44  43  96 CALM      30.00F
WALLOPS ISLAND CLOUDY    44  44 100 CALM      30.00F
CAMBRIDGE      CLOUDY    41  41 100 CALM      30.00S
SALISBURY      CLOUDY    43  42  97 CALM      30.00S

$$
PAZ001-021-NYZ056-072-MDZ011-DCZ001-051400-
OTHER NEARBY LOCATIONS

CITY           SKY/WX    TMP DP  RH WIND       PRES   REMARKS
HARRISBURG     DRIZZLE   40  39  97 CALM      29.99R
STATE COLLEGE  CLOUDY    34  32  93 CALM      29.93R
WILLIAMSPORT   LGT RAIN  37  36  96 N3        29.96R
BINGHAMTON     CLOUDY    32  30  92 SW10G21   29.86R WCI  24
NEW YORK CITY  CLOUDY    40  37  89 SW8       30.02F WCI  34
BALTIMORE      CLOUDY    41  41 100 CALM      30.00S
WASHINGTON DC  CLOUDY    43  41  93 SW5       30.01S

$$



USA.gov is the U.S. government's official web portal to all federal, state and local government web resources and services.